Weather observations for the past three days for
Monett
Imperial (Metric)
Date Time (cdt) Wind (mph) Vis. (mi.) Weather Sky Cond. Temperature (ºF) Relative Humidity Wind Chill (°F) Heat Index (°F) Pressure Precipitation (in)
Air Dwpt 6 hour altimeter (in) sea level (mb) 1 hr 3 hr 6 hr
Max. Min.
17 17:15 S 13 G 17 10.00 Partly Cloudy SCT055 86 68 55% 89 29.87 0.0
17 16:55 SE 10 G 20 10.00 Fair CLR 86 68 55% 89 29.88 0.0
17 16:35 S 13 10.00 Partly Cloudy SCT045 86 68 55% 89 29.89 0.0
17 16:15 S 14 10.00 Partly Cloudy SCT047 86 68 55% 89 29.88 0.0
17 15:55 S 12 G 18 10.00 Fair CLR 87.8 68 52% 91 29.89 0.0
17 15:35 S 9 G 18 10.00 Partly Cloudy SCT065 86 69.8 59% 91 29.9 0.0
17 15:15 S 15 10.00 Partly Cloudy SCT040 SCT048 SCT065 86 69.8 59% 91 29.91 0.0
17 14:55 S 15 G 21 10.00 Partly Cloudy SCT042 SCT048 86 69.8 59% 91 29.91 0.0
17 14:35 S 18 G 24 10.00 Fair CLR 86 68 55% 89 29.91 0.0
17 14:15 S 18 G 24 10.00 Partly Cloudy SCT036 SCT043 SCT050 86 68 55% 89 29.92 0.0
17 13:55 S 12 G 17 10.00 Partly Cloudy SCT036 SCT043 SCT050 86 69.8 59% 91 29.92 0.0
17 13:35 S 17 10.00 Mostly Cloudy SCT034 BKN041 BKN049 86 71.6 62% 92 29.92 0.0
17 13:15 S 12 10.00 Mostly Cloudy SCT032 BKN045 BKN055 86 71.6 62% 92 29.92 0.0
17 12:55 S 12 10.00 Mostly Cloudy BKN032 BKN048 BKN055 84.2 71.6 66% 90 29.92 0.0
17 12:35 S 14 G 20 10.00 Partly Cloudy SCT034 86 71.6 62% 92 29.92 0.0
17 12:15 S 12 10.00 Partly Cloudy SCT032 SCT038 SCT055 86 71.6 62% 92 29.93 0.0
17 11:55 S 14 G 18 10.00 Partly Cloudy SCT029 SCT037 SCT043 84.2 71.6 66% 90 29.93 0.0
17 11:35 S 13 10.00 Mostly Cloudy BKN027 BKN035 BKN045 82.4 71.6 70% 87 29.94 0.0
17 11:15 S 10 G 16 10.00 Mostly Cloudy SCT029 BKN035 BKN055 82.4 71.6 70% 87 29.94 0.0
17 10:55 S 13 G 16 10.00 Partly Cloudy SCT026 SCT035 82.4 71.6 70% 87 29.95 0.0
17 10:35 S 16 G 21 10.00 Partly Cloudy SCT028 SCT035 82.4 71.6 70% 87 29.95 0.0
17 10:15 S 9 G 16 10.00 Partly Cloudy SCT028 82.4 71.6 70% 87 29.95 0.0
17 09:55 S 12 10.00 Fair CLR 82.4 71.6 70% 87 29.95 0.0
17 09:35 S 12 10.00 Fair CLR 80.6 69.8 70% 84 29.95 0.0
17 09:15 S 9 10.00 Fair CLR 80.6 69.8 70% 84 29.94 0.0
17 08:55 S 9 10.00 Fair CLR 78.8 69.8 74% 81 29.95 0.0
17 08:35 S 9 10.00 Fair CLR 78.8 69.8 74% 81 29.94 0.0
17 08:15 S 9 10.00 Fair CLR 78.8 69.8 74% 81 29.93 0.0
17 07:55 S 8 10.00 Fair CLR 77 69.8 79% 79 29.93 0.0
17 07:35 S 9 10.00 Fair CLR 77 68 74% 79 29.92 0.0
17 07:15 S 10 10.00 Fair CLR 73.4 68 83% 29.91 0.0
17 06:55 SE 8 10.00 Fair CLR 73.4 68 83% 29.9 0.0
17 06:35 SE 7 10.00 Fair CLR 71.6 68 88% 29.9 0.0
17 06:15 SE 8 10.00 Fair CLR 71.6 68 88% 29.9 0.0
17 05:55 SE 8 10.00 Fair CLR 71.6 66.2 83% 29.89 0.0
17 05:35 SE 8 10.00 Fair CLR 71.6 66.2 83% 29.89 0.0
17 05:15 SE 8 10.00 Fair CLR 71.6 66.2 83% 29.89 0.0
17 04:55 SE 6 10.00 Fair CLR 71.6 66.2 83% 29.89 0.0
17 04:35 SE 6 10.00 Fair CLR 71.6 66.2 83% 29.9 0.0
17 04:15 SE 5 10.00 Fair CLR 71.6 66.2 83% 29.9 0.0
17 03:55 SE 7 10.00 Fair CLR 71.6 66.2 83% 29.9 0.0
17 03:35 SE 7 10.00 Fair CLR 71.6 66.2 83% 29.9 0.0
17 03:15 SE 6 10.00 Fair CLR 71.6 66.2 83% 29.91 0.0
17 02:55 S 6 10.00 Fair CLR 73.4 66.2 78% 29.91 0.0
17 02:35 SE 7 10.00 Fair CLR 73.4 66.2 78% 29.91 0.0
17 02:15 SE 7 10.00 Fair CLR 73.4 66.2 78% 29.91 0.0
17 01:55 SE 6 10.00 Fair CLR 73.4 68 83% 29.92 0.0
17 01:35 SE 6 10.00 Fair CLR 73.4 68 83% 29.92 0.0
17 01:15 SE 5 10.00 Fair CLR 73.4 68 83% 29.93 0.0
17 00:55 SE 5 10.00 Fair CLR 73.4 68 83% 29.92 0.0
17 00:35 SE 6 10.00 Fair CLR 73.4 68 83% 29.92 0.0
17 00:15 SE 5 10.00 Fair CLR 73.4 68 83% 29.92 0.0
16 23:55 SE 6 10.00 Fair CLR 73.4 68 83% 29.93 0.0
16 23:35 SE 5 10.00 Fair CLR 75.2 68 78% 76 29.93 0.0
16 23:15 SE 5 10.00 Fair CLR 77 68 74% 79 29.93 0.0
16 22:55 SE 6 10.00 Fair CLR 77 68 74% 79 29.93 0.0
16 22:35 SE 6 10.00 Partly Cloudy SCT050 77 68 74% 79 29.93 0.0
16 22:15 SE 6 10.00 Mostly Cloudy BKN050 BKN060 77 68 74% 79 29.92 0.0
16 21:55 SE 5 10.00 Partly Cloudy SCT050 78.8 68 70% 81 29.91 0.0
16 21:35 SE 7 10.00 Fair CLR 78.8 68 70% 81 29.91 0.0
16 21:15 SE 6 10.00 Fair CLR 78.8 68 70% 81 29.9 0.0
16 20:35 SE 7 10.00 Fair CLR 80.6 68 66% 83 29.89 0.0
16 20:15 SE 6 10.00 Fair CLR 80.6 68 66% 83 29.89 0.0
16 19:55 SE 7 10.00 Fair CLR 82.4 68 62% 85 29.89 0.0
16 19:35 S 6 10.00 Fair CLR 82.4 68 62% 85 29.89 0.0
16 19:15 S 8 10.00 Fair CLR 84.2 68 58% 87 29.88 0.0
16 18:55 S 10 10.00 Fair CLR 86 68 55% 89 29.88 0.0
16 18:35 S 8 10.00 Partly Cloudy SCT055 SCT065 86 68 55% 89 29.88 0.0
16 18:15 S 9 10.00 Partly Cloudy SCT055 SCT065 87.8 66.2 49% 90 29.88 0.0
16 17:55 S 12 10.00 Fair CLR 87.8 64.4 46% 89 29.87 0.0
16 17:35 S 13 10.00 Fair CLR 87.8 64.4 46% 89 29.88 0.0
16 17:15 S 13 G 21 10.00 Fair CLR 87.8 64.4 46% 89 29.87 0.0
16 16:55 S 12 10.00 Partly Cloudy SCT055 87.8 68 52% 91 29.87 0.0
16 16:35 S 10 G 16 10.00 Fair CLR 87.8 66.2 49% 90 29.87 0.0
16 16:15 S 13 G 18 10.00 Fair CLR 87.8 64.4 46% 89 29.87 0.0
16 15:55 S 12 G 22 10.00 Fair CLR 87.8 64.4 46% 89 29.88 0.0
16 15:35 S 13 G 17 10.00 Fair CLR 87.8 66.2 49% 90 29.88 0.0
16 15:15 S 14 G 20 10.00 Fair CLR 87.8 68 52% 91 29.88 0.0
16 14:55 S 15 G 21 10.00 Fair CLR 87.8 68 52% 91 29.89 0.0
16 14:35 SW 16 10.00 Fair CLR 87.8 66.2 49% 90 29.9 0.0
16 14:15 S 14 G 24 10.00 Fair CLR 87.8 68 52% 91 29.91 0.0
16 13:55 S 13 G 21 10.00 Fair CLR 87.8 68 52% 91 29.92 0.0
16 13:35 S 13 10.00 Fair CLR 87.8 68 52% 91 29.93 0.0
16 13:15 SW 14 G 22 10.00 Fair CLR 87.8 68 52% 91 29.94 0.0
16 12:55 SW 15 G 21 10.00 Fair CLR 86 68 55% 89 29.95 0.0
16 12:35 S 13 10.00 Partly Cloudy SCT040 SCT047 86 69.8 59% 91 29.95 0.0
16 12:15 SW 10 10.00 Partly Cloudy SCT037 SCT044 SCT050 84.2 69.8 62% 88 29.96 0.0
16 11:55 SW 15 10.00 Partly Cloudy SCT070 86 69.8 59% 91 29.97 0.0
16 11:35 SW 15 G 20 10.00 Partly Cloudy SCT032 SCT042 84.2 69.8 62% 88 29.97 0.0
16 11:15 SW 16 10.00 Partly Cloudy SCT034 SCT042 SCT050 82.4 69.8 66% 86 29.98 0.0
16 10:55 SW 14 10.00 Mostly Cloudy BKN034 BKN047 BKN060 82.4 69.8 66% 86 29.98 0.0
16 10:35 SW 10 G 18 10.00 Mostly Cloudy SCT034 BKN047 BKN065 82.4 69.8 66% 86 29.98 0.0
16 10:15 SW 12 G 17 10.00 Fair CLR 82.4 69.8 66% 86 29.98 0.0
16 09:55 S 10 10.00 Fair CLR 82.4 69.8 66% 86 29.96 0.0
16 09:35 S 12 G 17 10.00 Fair CLR 80.6 69.8 70% 84 29.96 0.0
16 09:15 S 10 10.00 Fair CLR 80.6 69.8 70% 84 29.96 0.0
16 08:55 S 13 G 17 10.00 Fair CLR 78.8 68 70% 81 29.96 0.0
16 08:35 S 6 10.00 Fair CLR 78.8 68 70% 81 29.96 0.0
16 08:15 S 7 10.00 Fair CLR 77 68 74% 79 29.95 0.0
16 07:55 S 8 10.00 Fair CLR 75.2 68 78% 76 29.93 0.0
16 07:35 SE 7 10.00 Fair CLR 73.4 68 83% 29.93 0.0
16 07:15 SE 6 10.00 Fair CLR 73.4 66.2 78% 29.92 0.0
16 06:55 S 7 10.00 Fair CLR 71.6 66.2 83% 29.92 0.0
16 06:35 S 9 10.00 Fair CLR 71.6 66.2 83% 29.92 0.0
16 06:15 S 7 10.00 Fair CLR 71.6 66.2 83% 29.92 0.0
16 05:55 S 8 10.00 Fair CLR 71.6 66.2 83% 29.91 0.0
16 05:35 S 7 10.00 Fair CLR 71.6 66.2 83% 29.91 0.0
16 05:15 S 8 10.00 Fair CLR 71.6 66.2 83% 29.91 0.0
16 04:55 S 7 10.00 Fair CLR 71.6 66.2 83% 29.9 0.0
16 04:35 S 9 10.00 Fair CLR 73.4 66.2 78% 29.91 0.0
16 04:15 S 9 10.00 Fair CLR 73.4 66.2 78% 29.9 0.0
16 03:55 S 8 10.00 Fair CLR 73.4 68 83% 29.9 0.0
16 03:35 S 8 10.00 Fair CLR 73.4 68 83% 29.9 0.0
16 03:15 S 8 10.00 Fair CLR 73.4 68 83% 29.9 0.0
16 02:55 S 8 10.00 Fair CLR 73.4 68 83% 29.9 0.0
16 02:35 S 7 10.00 Fair CLR 73.4 68 83% 29.91 0.0
16 02:15 S 8 10.00 Fair CLR 75.2 68 78% 76 29.91 0.0
16 01:55 S 7 10.00 Fair CLR 75.2 68 78% 76 29.91 0.0
16 01:35 S 7 10.00 Fair CLR 73.4 68 83% 29.92 0.0
16 01:15 S 7 10.00 Fair CLR 73.4 68 83% 29.92 0.0
16 00:55 S 7 10.00 Fair CLR 73.4 68 83% 29.93 0.0
16 00:35 SE 7 10.00 Fair CLR 73.4 68 83% 29.93 0.0
16 00:15 S 7 10.00 Fair CLR 73.4 68 83% 29.93 0.0
15 23:55 S 6 10.00 Fair CLR 73.4 68 83% 29.93 0.0
15 23:35 S 6 10.00 Fair CLR 75.2 68 78% 76 29.93 0.0
15 23:15 S 7 10.00 Fair CLR 75.2 68 78% 76 29.93 0.0
15 22:55 S 6 10.00 Fair CLR 77 68 74% 79 29.92 0.0
15 22:35 S 6 10.00 Fair CLR 77 68 74% 79 29.92 0.0
15 22:15 S 6 10.00 Fair CLR 77 68 74% 79 29.92 0.0
15 21:55 S 6 10.00 Fair CLR 78.8 68 70% 81 29.91 0.0
15 21:35 S 8 10.00 Fair CLR 78.8 68 70% 81 29.9 0.0
15 21:15 S 6 10.00 Fair CLR 78.8 69.8 74% 81 29.9 0.0
15 20:55 SE 5 10.00 Fair CLR 78.8 69.8 74% 81 29.9 0.0
15 20:35 S 5 10.00 Fair CLR 80.6 69.8 70% 84 29.9 0.0
15 20:15 SE 5 10.00 Fair CLR 80.6 69.8 70% 84 29.9 0.0
15 19:55 S 6 10.00 Fair CLR 82.4 69.8 66% 86 29.9 0.0
15 19:35 S 5 10.00 Fair CLR 84.2 69.8 62% 88 29.9 0.0
15 19:15 S 6 10.00 Fair CLR 86 69.8 59% 91 29.9 0.0
15 18:55 S 8 10.00 Fair CLR 86 69.8 59% 91 29.9 0.0
15 18:35 S 9 10.00 Partly Cloudy SCT050 87.8 68 52% 91 29.9 0.0
15 18:15 S 9 10.00 Partly Cloudy SCT050 87.8 69.8 55% 93 29.9 0.0
15 17:55 S 9 10.00 Partly Cloudy SCT055 87.8 69.8 55% 93 29.91 0.0
15 17:35 S 10 10.00 Partly Cloudy SCT050 87.8 68 52% 91 29.91 0.0
15 17:15 S 13 G 16 10.00 Partly Cloudy SCT050 89.6 68 49% 93 29.92 0.0
15 16:55 S 8 10.00 Partly Cloudy SCT050 89.6 68 49% 93 29.92 0.0
15 16:35 SE 8 10.00 Mostly Cloudy BKN050 BKN070 89.6 69.8 52% 95 29.92 0.0
15 16:15 SE 10 10.00 Partly Cloudy SCT050 SCT070 89.6 69.8 52% 95 29.93 0.0
15 15:55 S 8 10.00 Partly Cloudy SCT050 89.6 69.8 52% 95 29.93 0.0
15 15:35 S 7 10.00 Partly Cloudy SCT050 87.8 68 52% 91 29.94 0.0
15 15:15 SE 5 10.00 Fair CLR 87.8 68 52% 91 29.94 0.0
15 14:55 S 9 10.00 Fair CLR 87.8 69.8 55% 93 29.95 0.0
15 14:35 S 9 10.00 Fair CLR 87.8 69.8 55% 93 29.95 0.0
15 14:15 SE 8 10.00 Partly Cloudy SCT045 87.8 69.8 55% 93 29.96 0.0
15 13:55 S 9 10.00 Partly Cloudy SCT043 SCT060 87.8 69.8 55% 93 29.97 0.0
15 13:35 S 10 10.00 Partly Cloudy SCT043 SCT060 86 71.6 62% 92 29.97 0.0
15 13:15 S 12 10.00 Partly Cloudy SCT043 87.8 69.8 55% 93 29.98 0.0
15 12:55 SE 9 10.00 Partly Cloudy SCT043 86 69.8 59% 91 29.98 0.0
15 12:35 S 9 10.00 Partly Cloudy SCT041 86 69.8 59% 91 29.99 0.0
15 12:15 S 9 10.00 Partly Cloudy SCT037 86 69.8 59% 91 29.99 0.0
15 11:55 S 10 G 16 10.00 Partly Cloudy SCT037 86 69.8 59% 91 29.99 0.0
15 11:35 SE 9 10.00 Partly Cloudy SCT035 86 69.8 59% 91 29.99 0.0
15 11:15 SE 9 10.00 Partly Cloudy SCT035 86 69.8 59% 91 30 0.0
15 10:55 S 9 G 16 10.00 Partly Cloudy SCT032 84.2 69.8 62% 88 30 0.0
15 10:35 S 8 10.00 Fair CLR 84.2 71.6 66% 90 30.01 0.0
15 10:15 S 8 10.00 Fair CLR 82.4 71.6 70% 87 30.01 0.0
15 09:55 SE 9 10.00 Fair CLR 82.4 71.6 70% 87 30.02 0.0
15 09:35 S 6 10.00 Fair CLR 80.6 71.6 74% 85 30.03 0.0
15 09:15 SE 7 10.00 Fair CLR 80.6 71.6 74% 85 30.03 0.0
15 08:55 SE 6 10.00 Fair CLR 80.6 71.6 74% 85 30.03 0.0
15 08:35 SE 10 10.00 Fair CLR 78.8 71.6 79% 82 30.03 0.0
15 08:15 SE 6 10.00 Fair CLR 78.8 71.6 79% 82 30.03 0.0
15 07:55 SE 5 10.00 Fair CLR 77 71.6 83% 78 30.03 0.0
15 07:35 E 3 10.00 Fair CLR 73.4 71.6 94% 30.03 0.0
15 07:15 SE 3 10.00 Fair CLR 73.4 71.6 94% 30.03 0.0
15 06:55 SE 6 10.00 Fair CLR 71.6 71.6 100% 30.03 0.0
15 06:35 SE 6 10.00 Fair CLR 71.6 71.6 100% 30.02 0.0
15 06:15 SE 5 10.00 Fair CLR 71.6 71.6 100% 30.03 0.0
15 05:55 SE 5 10.00 Fair CLR 71.6 71.6 100% 30.03 0.0
15 05:35 SE 3 10.00 Fair CLR 71.6 71.6 100% 30.03 0.0
15 05:15 E 3 10.00 Fair CLR 71.6 71.6 100% 30.03 0.0
15 04:55 Calm 10.00 Fair CLR 71.6 71.6 100% 30.02 0.0
15 04:35 SE 3 10.00 Fair CLR 71.6 71.6 100% 30.01 0.0
15 04:15 SE 3 10.00 Fair CLR 71.6 71.6 100% 30.01 0.0
15 03:55 E 6 10.00 Fair CLR 71.6 71.6 100% 30.01 0.0
15 03:35 SE 5 10.00 Fair CLR 71.6 71.6 100% 30 0.0
15 03:15 E 5 10.00 Fair CLR 71.6 71.6 100% 30 0.0
15 02:55 E 3 10.00 Fair CLR 71.6 71.6 100% 30 0.0
15 02:35 SE 3 10.00 Fair CLR 71.6 71.6 100% 30 0.0
15 02:15 SE 3 10.00 Fair CLR 71.6 71.6 100% 30 0.0
15 01:55 E 5 10.00 Fair CLR 71.6 71.6 100% 30 0.0
15 01:35 SE 3 10.00 Fair CLR 71.6 71.6 100% 30.01 0.0
15 01:15 E 5 10.00 Fair CLR 71.6 71.6 100% 30.02 0.0
15 00:55 E 5 10.00 Fair CLR 73.4 69.8 89% 30.02 0.0
15 00:35 E 6 10.00 Fair CLR 73.4 69.8 89% 30.03 0.0
15 00:15 E 7 10.00 Fair CLR 73.4 69.8 89% 30.02 0.0
14 23:55 E 7 10.00 Fair CLR 73.4 69.8 89% 30.02 0.0
14 23:35 E 5 10.00 Fair CLR 73.4 69.8 89% 30.02 0.0
14 23:15 E 5 10.00 Fair CLR 75.2 69.8 83% 75 30.02 0.0
14 22:55 E 6 10.00 Fair CLR 77 69.8 79% 79 30.01 0.0
14 22:35 E 6 10.00 Fair CLR 77 69.8 79% 79 30.01 0.0
14 22:15 E 7 10.00 Fair CLR 77 69.8 79% 79 30.01 0.0
14 21:55 E 6 10.00 Fair CLR 78.8 69.8 74% 81 30 0.0
14 21:35 E 5 10.00 Fair CLR 78.8 69.8 74% 81 30 0.0
14 21:15 E 5 10.00 Fair CLR 78.8 69.8 74% 81 30 0.0
14 20:55 E 5 10.00 Fair CLR 78.8 69.8 74% 81 30 0.0
14 20:35 E 3 10.00 Fair CLR 80.6 69.8 70% 84 30 0.0
14 20:15 E 5 10.00 Fair CLR 80.6 69.8 70% 84 30 0.0
14 19:55 E 3 10.00 Fair CLR 82.4 69.8 66% 86 30 0.0
14 19:35 E 6 10.00 Fair CLR 82.4 68 62% 85 30 0.0
14 19:15 E 6 10.00 Fair CLR 84.2 68 58% 87 30 0.0
14 18:55 E 7 10.00 Fair CLR 86 68 55% 89 30 0.0
14 18:35 E 6 10.00 Fair CLR 86 68 55% 89 30 0.0
14 18:15 E 6 10.00 Fair CLR 86 68 55% 89 30 0.0
14 17:55 E 7 10.00 Fair CLR 86 68 55% 89 30 0.0
14 17:35 NE 8 10.00 Fair CLR 86 68 55% 89 30 0.0
Date Time (cdt) Wind (mph) Vis. (mi.) Weather Sky Cond. Air Dwpt Max. Min. Relative Humidity Wind Chill (°F) Heat Index (°F) altimeter (in) sea level (mb) 1 hr 3 hr 6 hr
6 hour
Temperature (ºF) Pressure Precipitation (in)